Flag for Belarus Weather past 2 weeks in Gomel, Belarus

Now
39 °F

Partly cloudy.


Feels Like: 32 °F
Forecast: 36 / 44 °F
Wind: 13 mph from Southeast

Location: Gomel'

Current Time: Apr 1, 2015 at 3:13:15 AM

Latest Report: Apr 1, 2015 at 2:00 AM


Visibility: 4 mi

Pressure: 29.42 "Hg

Humidity: 93%

Dew point: 37 °F

Location of GomelLocation

Historic Weather in Gomel — Graph

°F

Gomel temperature yesterday

Maximum temperature yesterday: 45 °F (at 8:00 AM)
Minimum temperature yesterday: 37 °F (at 10:00 PM)
Average temperature yesterday: 42 °F

Past Weeks' High & Low Weather Summary

 TemperatureHumidityPressure
High63 °F (Mar 25, 4:00 PM)100% (Mar 29, 11:00 PM)30.92 "Hg (Mar 29, 11:00 PM)
Low19 °F (Mar 23, 6:00 AM)19% (Mar 24, 3:00 PM)29.42 "Hg (Apr 1, 2:00 AM)
Average41 °F63%30.09 "Hg
* Reported Mar 17 2:00 AM — Apr 1 2:00 AM, Gomel, Weather by CustomWeather, © 2015

Note: Actual official high and low records may vary slightly from our data, if they occured in-between our weather recording intervals... More about our weather records

Advertising

Gomel weather history for previous 24 hours

 ConditionsComfort  
Time TempWeatherWind HumidityBarometerVisibility
2:00 AM
Wed, Apr 1
39 °FPartly cloudy.13 mph93%29.42 "Hg4 mi
1:00 AM37 °FPassing clouds.13 mph100%29.45 "Hg4 mi
12:00 AM37 °FPassing clouds.10 mph100%29.45 "Hg4 mi
11:00 PM
Tue, Mar 31
37 °FFog.10 mph93%29.47 "Hg2 mi
10:00 PM37 °FClear.8 mph93%29.47 "Hg10 mi
9:00 PM39 °FClear.8 mph93%29.47 "Hg10 mi
8:00 PM41 °FBroken clouds.8 mph93%29.47 "HgN/A
7:30 PM43 °FBroken clouds.10 mph87%29.47 "HgN/A
7:00 PM43 °FScattered clouds.8 mph87%29.47 "HgN/A
6:30 PM43 °FBroken clouds.8 mph87%29.47 "HgN/A
6:00 PM43 °FPartly sunny.8 mph87%29.50 "HgN/A
5:30 PM43 °FPartly sunny.8 mph87%29.50 "HgN/A
5:00 PM43 °FPartly sunny.6 mph87%29.50 "HgN/A
4:30 PM43 °FOvercast.6 mph87%29.53 "HgN/A
4:00 PM43 °FSprinkles. Overcast.10 mph87%29.53 "Hg5 mi
3:30 PM41 °FSprinkles. Overcast.10 mph93%29.53 "HgN/A
3:00 PM41 °FSprinkles. Overcast.8 mph93%29.53 "Hg6 mi
2:30 PM43 °FSprinkles. More clouds than sun.10 mph87%29.53 "HgN/A
2:00 PM43 °FSprinkles. More clouds than sun.8 mph87%29.53 "HgN/A
1:30 PM43 °FSprinkles. Overcast.6 mph87%29.53 "HgN/A
1:00 PM43 °FSprinkles. More clouds than sun.6 mph87%29.53 "HgN/A
12:30 PM43 °FSprinkles. More clouds than sun.6 mph87%29.53 "HgN/A
12:00 PM43 °FSprinkles. Mostly cloudy.8 mph87%29.53 "HgN/A
11:30 AM41 °FSprinkles. More clouds than sun.8 mph87%29.53 "HgN/A
11:00 AM41 °FSprinkles. More clouds than sun.8 mph87%29.53 "HgN/A
10:30 AM41 °FSprinkles. More clouds than sun.13 mph93%29.53 "Hg6 mi
10:00 AM41 °FSprinkles. Mostly cloudy.10 mph93%29.53 "Hg5 mi
9:30 AM43 °FSprinkles. Mostly cloudy.15 mph87%29.53 "Hg4 mi
9:00 AM43 °FLight rain. Fog.15 mph87%29.50 "Hg3 mi
8:30 AM45 °FLight rain. Mostly cloudy.13 mph100%29.50 "Hg4 mi
8:00 AM45 °FLight rain. Fog.13 mph61%29.47 "Hg3 mi
7:30 AM43 °FLight rain. Fog.13 mph100%29.47 "Hg3 mi
7:00 AM43 °FLight rain. Fog.15 mph100%29.47 "Hg3 mi
6:30 AM43 °FLight rain. Low clouds.15 mph100%29.47 "Hg4 mi
5:00 AM41 °FLight rain. Fog.13 mph93%29.50 "Hg3 mi
4:00 AM41 °FLight rain. Fog.15 mph93%29.53 "Hg3 mi
3:00 AM41 °FLight rain. Low clouds.15 mph93%29.53 "Hg4 mi
Weather by CustomWeather, © 2015

See weather overviewHow to use our weather pages